Miami, FL

6:12 AM EDT on March 24, 2017 (GMT -0400)
Miami International

Weather History for KMIA - July, 2013

Change the Weather History Date:

Saturday, July 27, 2013

  Actual Average Record
Temperature  
Mean Temperature 82 °F 84 °F  
Max Temperature 87 °F 91 °F 95 °F (1990)
Min Temperature 76 °F 78 °F 71 °F (1946)
Degree Days  
Heating Degree Days 0 0  
Month to date heating degree days 0 0  
Since 1 June heating degree days 0 0  
Since 1 July heating degree days 0 0  
Cooling Degree Days 17 20  
Month to date cooling degree days 471 513  
Year to date cooling degree days 2464 2401  
Since 1 June cooling degree days 1019 1045  
Growing Degree Days 32 (Base 50)    
Moisture  
Dew Point 74 °F    
Average Humidity 80    
Maximum Humidity 91    
Minimum Humidity 69    
Precipitation  
Precipitation 0.44 in 0.20 in 1.64 in (1947)
Month to date precipitation 12.35 5.68  
Year to date precipitation 37.90 30.70  
Snow  
Snow 0.00 in - - ()
Month to date snowfall 0.0  
Since 1 June snowfall 0.0  
Since 1 July snowfall 0.0  
Snow Depth 0.00 in    
Sea Level Pressure  
Sea Level Pressure 30.00 in    
Wind  
Wind Speed 4 mph (SSW)    
Max Wind Speed 16 mph    
Max Gust Speed 21 mph    
Visibility 9 miles    
Events Rain , Thunderstorm    
T = Trace of Precipitation, MM = Missing Value Source: NWS Daily Summary

Daily Weather History Graph

Daily Weather History Graph

Search for Another Location

Airport or City:

Trip Planner

Search our weather history database for the weather conditions in past years. The results will help you decide how hot, cold, wet, or windy it might be!

Date:

Astronomy

Jul. 27, 2013 Rise Set
Actual Time 6:45 AM EDT 8:09 PM EDT
Civil Twilight 6:20 AM EDT 8:34 PM EDT
Nautical Twilight 5:50 AM EDT 9:04 PM EDT
Astronomical Twilight 5:19 AM EDT 9:35 PM EDT
Moon 11:38 PM EDT (7/27) 11:44 AM EDT (7/27)
Length of Visible Light 14h 14m
Length of Day
13h 24m
Waning Gibbous, 71% of the Moon is Illuminated
Jul 27
Waning Gibbous
Jul 29
Last Quarter
Aug 6
New
Aug 14
First Quarter
Aug 20
Full

Hourly Weather History & Observations

Time (EDT) Temp. Heat Index Dew Point Humidity Pressure Visibility Wind Dir Wind Speed Gust Speed Precip Events Conditions
12:53 AM 82.0 °F 88.6 °F 75.0 °F 79% 30.01 in 10.0 mi WSW 4.6 mph - N/A   Mostly Cloudy
1:53 AM 82.0 °F 89.4 °F 75.9 °F 82% 30.00 in 10.0 mi WSW 6.9 mph - N/A   Mostly Cloudy
2:53 AM 80.1 °F 85.4 °F 75.9 °F 87% 29.99 in 10.0 mi South 3.5 mph - N/A   Overcast
3:53 AM 81.0 °F 87.3 °F 75.9 °F 85% 29.96 in 10.0 mi SW 4.6 mph - N/A   Mostly Cloudy
4:53 AM 81.0 °F 87.9 °F 77.0 °F 88% 29.97 in 10.0 mi South 3.5 mph - N/A   Mostly Cloudy
5:53 AM 81.0 °F 87.3 °F 75.9 °F 85% 29.98 in 10.0 mi WSW 4.6 mph - N/A   Mostly Cloudy
6:53 AM 80.1 °F 85.4 °F 75.9 °F 87% 29.99 in 10.0 mi SW 3.5 mph - N/A   Mostly Cloudy
7:53 AM 82.0 °F 89.4 °F 75.9 °F 82% 30.01 in 10.0 mi WSW 4.6 mph - N/A   Mostly Cloudy
8:53 AM 84.0 °F 93.7 °F 77.0 °F 79% 30.01 in 10.0 mi Calm Calm - N/A   Mostly Cloudy
9:53 AM 84.9 °F 93.3 °F 75.0 °F 72% 30.00 in 10.0 mi SSW 4.6 mph - N/A   Mostly Cloudy
10:53 AM 77.0 °F - 73.0 °F 88% 30.00 in 4.0 mi NW 11.5 mph - 0.21 in Rain Heavy Rain
11:00 AM 78.8 °F - 73.4 °F 83% 30.01 in 3.0 mi NW 8.1 mph 18.4 mph 0.15 in Rain Heavy Rain
11:53 AM 77.0 °F - 73.9 °F 90% 30.04 in 5.0 mi East 8.1 mph - 0.23 in Rain Rain
12:53 PM 77.0 °F - 75.0 °F 94% 30.01 in 10.0 mi East 5.8 mph - 0.00 in   Mostly Cloudy
1:53 PM 80.1 °F 84.5 °F 73.9 °F 81% 30.01 in 10.0 mi South 8.1 mph - N/A   Overcast
2:53 PM 77.0 °F - 72.0 °F 84% 30.01 in 10.0 mi SSE 3.5 mph - 0.00 in   Overcast
3:53 PM 79.0 °F - 71.1 °F 77% 30.00 in 10.0 mi Calm Calm - N/A   Overcast
4:53 PM 82.0 °F 86.7 °F 72.0 °F 71% 29.98 in 10.0 mi Calm Calm - N/A   Mostly Cloudy
5:53 PM 82.0 °F 86.3 °F 71.1 °F 69% 29.97 in 10.0 mi SSW 6.9 mph - N/A   Mostly Cloudy
6:53 PM 82.0 °F 87.9 °F 73.9 °F 76% 29.97 in 10.0 mi Calm Calm - N/A   Mostly Cloudy
7:53 PM 82.0 °F 87.9 °F 73.9 °F 76% 29.99 in 10.0 mi Calm Calm - N/A   Overcast
8:53 PM 81.0 °F 86.2 °F 73.9 °F 79% 29.99 in 10.0 mi South 3.5 mph - N/A   Mostly Cloudy
9:53 PM 81.0 °F 86.2 °F 73.9 °F 79% 30.01 in 10.0 mi South 4.6 mph - N/A   Mostly Cloudy
10:53 PM 81.0 °F 86.7 °F 75.0 °F 82% 30.01 in 10.0 mi Calm Calm - N/A   Mostly Cloudy
10:58 PM 80.6 °F 86.2 °F 75.2 °F 84% 30.01 in 10.0 mi SW 4.6 mph - N/A Thunderstorm Thunderstorm
11:53 PM 79.0 °F - 73.9 °F 84% 30.04 in 10.0 mi SE 8.1 mph - N/A Thunderstorm Thunderstorm